TimePDT,TemperatureF,Dew PointF,Humidity,Sea Level PressureIn,VisibilityMPH,Wind Direction,Wind SpeedMPH,Gust SpeedMPH,PrecipitationIn,Events,Conditions,WindDirDegrees,DateUTC
12:53 AM,53.1,51.1,93,29.90,10.0,Calm,Calm,-,N/A,,Clear,0,2013-08-22 07:53:00
1:42 AM,53.6,51.8,94,29.91,10.0,Calm,Calm,-,N/A,,Partly Cloudy,0,2013-08-22 08:42:00
1:53 AM,53.1,51.1,93,29.90,10.0,Calm,Calm,-,N/A,,Scattered Clouds,0,2013-08-22 08:53:00
2:02 AM,53.6,51.8,94,29.91,10.0,Calm,Calm,-,N/A,,Mostly Cloudy,0,2013-08-22 09:02:00
2:53 AM,54.0,51.1,90,29.91,10.0,SSW,3.5,-,N/A,,Overcast,210,2013-08-22 09:53:00
3:53 AM,55.9,52.0,87,29.90,10.0,South,3.5,-,N/A,,Overcast,170,2013-08-22 10:53:00
4:53 AM,55.9,53.1,90,29.90,10.0,South,3.5,-,N/A,,Overcast,180,2013-08-22 11:53:00
5:53 AM,55.9,53.1,90,29.89,10.0,Calm,Calm,-,N/A,,Overcast,0,2013-08-22 12:53:00
6:53 AM,55.9,53.1,90,29.91,4.0,SE,3.5,-,N/A,,Overcast,140,2013-08-22 13:53:00
7:53 AM,55.9,53.1,90,29.93,4.0,Calm,Calm,-,N/A,,Overcast,0,2013-08-22 14:53:00
8:53 AM,57.0,53.1,87,29.95,4.0,Calm,Calm,-,N/A,,Overcast,0,2013-08-22 15:53:00
9:53 AM,57.9,54.0,87,29.96,3.0,WSW,3.5,-,0.00,,Overcast,250,2013-08-22 16:53:00
10:15 AM,60.8,53.6,77,29.97,5.0,Calm,Calm,-,N/A,,Overcast,0,2013-08-22 17:15:00
10:53 AM,62.1,54.0,75,29.96,10.0,Variable,3.5,-,N/A,,Overcast,0,2013-08-22 17:53:00
11:30 AM,62.6,53.6,72,29.97,10.0,Calm,Calm,-,N/A,,Overcast,0,2013-08-22 18:30:00
11:53 AM,64.0,54.0,70,29.94,10.0,SSW,4.6,-,N/A,,Mostly Cloudy,210,2013-08-22 18:53:00
12:31 PM,66.2,53.6,64,29.95,10.0,SSW,5.8,-,N/A,,Scattered Clouds,210,2013-08-22 19:31:00
12:53 PM,70.0,54.0,57,29.93,10.0,SSE,8.1,-,N/A,,Scattered Clouds,160,2013-08-22 19:53:00
1:53 PM,72.0,54.0,53,29.91,10.0,SSW,5.8,-,N/A,,Clear,200,2013-08-22 20:53:00
2:53 PM,75.0,55.9,51,29.90,10.0,South,9.2,-,N/A,,Clear,190,2013-08-22 21:53:00
3:53 PM,73.9,55.0,52,29.88,10.0,South,9.2,-,N/A,,Clear,190,2013-08-22 22:53:00
3:55 PM,73.4,55.4,53,29.89,10.0,South,8.1,-,N/A,,Clear,190,2013-08-22 22:55:00
4:53 PM,75.0,54.0,48,29.87,10.0,SSE,9.2,-,N/A,,Clear,160,2013-08-22 23:53:00
5:53 PM,71.1,53.1,53,29.87,10.0,SW,9.2,-,N/A,,Clear,220,2013-08-23 00:53:00
6:53 PM,66.9,53.1,61,29.86,10.0,South,6.9,-,N/A,,Clear,190,2013-08-23 01:53:00
7:53 PM,61.0,53.1,75,29.87,10.0,SSE,6.9,-,N/A,,Clear,160,2013-08-23 02:53:00
8:53 PM,57.9,52.0,81,29.88,10.0,SSE,5.8,-,N/A,,Clear,160,2013-08-23 03:53:00
9:53 PM,55.9,52.0,87,29.89,10.0,SE,5.8,-,N/A,,Clear,140,2013-08-23 04:53:00
10:53 PM,55.0,52.0,89,29.90,10.0,SE,4.6,-,N/A,,Partly Cloudy,140,2013-08-23 05:53:00
11:53 PM,55.0,51.1,86,29.90,10.0,ESE,3.5,-,N/A,,Partly Cloudy,120,2013-08-23 06:53:00